Location: Wald
(31.7579°N, 86.6655°W)
Time: 12:28:35
(UTC+00:00)

Cosmos 2369 - Pass Details

Date: 14 July 2020
Orbit: 838 x 857 km, 71.0° (Epoch: 08 August)

Event Time Altitude Azimuth Distance (km) Brightness Sun altitude
Rises 08:31:41 0° 337° (NNW) 3,429 7.2 -24.5°
Reaches altitude 10° 08:34:08 10° 336° (NNW) 2,491 6.4 -24.1°
Maximum altitude 08:39:51 76° 252° (WSW) 883 3.6 -23.3°
Enters shadow 08:42:04 39° 175° (S) 1,261 4.3 -23.0°
